Lincoln, IL

6:24 PM CDT on April 24, 2017 (GMT -0500)
Lincoln

Weather History for KAAA - November, 2013

Change the Weather History Date:

Sunday, November 24, 2013

  Actual Average (KSPI) Record (KSPI)
Temperature  
Mean Temperature 20 °F -  
Max Temperature 29 °F 46 °F 67 °F (1966)
Min Temperature 12 °F 29 °F -2 °F (1950)
Degree Days  
Heating Degree Days 44    
Moisture  
Dew Point 10 °F    
Average Humidity 65    
Maximum Humidity 82    
Minimum Humidity 34    
Precipitation  
Precipitation 0.00 in - - ()
Sea Level Pressure  
Sea Level Pressure 30.65 in    
Wind  
Wind Speed 3 mph (SSW)    
Max Wind Speed 14 mph    
Max Gust Speed -    
Visibility 10 miles    
Events      
Averages and records for this station are not official NWS values.
T = Trace of Precipitation, MM = Missing Value Source: NWS Daily Summary

Daily Weather History Graph

Daily Weather History Graph

Search for Another Location

Airport or City:

Trip Planner

Search our weather history database for the weather conditions in past years. The results will help you decide how hot, cold, wet, or windy it might be!

Date:

Astronomy

Nov. 24, 2013 Rise Set
Actual Time 6:53 AM CST 4:34 PM CST
Civil Twilight 6:23 AM CST 5:04 PM CST
Nautical Twilight 5:50 AM CST 5:37 PM CST
Astronomical Twilight 5:17 AM CST 6:10 PM CST
Moon 11:00 PM CST 11:40 AM CST
Length of Visible Light 10h 40m
Length of Day
9h 41m
Waning Gibbous, 60% of the Moon is Illuminated
Nov 24
Waning Gibbous
Nov 25
Last Quarter
Dec 2
New
Dec 9
First Quarter
Dec 17
Full

Hourly Weather History & Observations

Time (CST) Temp. Windchill Dew Point Humidity Pressure Visibility Wind Dir Wind Speed Gust Speed Precip Events Conditions
12:15 AM 16.5 °F 8.1 °F 9.3 °F 73% 30.73 in 10.0 mi North 5.8 mph - N/A   Clear
12:35 AM 15.8 °F 8.6 °F 9.1 °F 75% 30.73 in 10.0 mi North 4.6 mph - N/A   Clear
12:55 AM 15.8 °F - 8.6 °F 73% 30.74 in 10.0 mi Calm Calm - N/A   Clear
1:15 AM 14.9 °F 9.2 °F 9.0 °F 77% 30.73 in 10.0 mi North 3.5 mph - N/A   Clear
1:35 AM 14.9 °F 9.2 °F 8.6 °F 76% 30.73 in 10.0 mi North 3.5 mph - N/A   Clear
1:55 AM 14.5 °F - 8.4 °F 77% 30.74 in 10.0 mi Calm Calm - N/A   Clear
2:15 AM 14.5 °F - 8.1 °F 75% 30.75 in 10.0 mi Calm Calm - N/A   Clear
2:35 AM 14.5 °F - 7.9 °F 75% 30.74 in 10.0 mi Calm Calm - N/A   Clear
2:55 AM 14.0 °F - 7.7 °F 76% 30.73 in 10.0 mi Calm Calm - N/A   Clear
3:15 AM 13.8 °F - 7.7 °F 77% 30.73 in 10.0 mi Calm Calm - N/A   Clear
3:35 AM 13.8 °F 8.0 °F 7.7 °F 77% 30.73 in 10.0 mi NNW 3.5 mph - N/A   Clear
3:55 AM 13.6 °F - 7.7 °F 77% 30.73 in 10.0 mi Calm Calm - N/A   Clear
4:15 AM 13.1 °F 7.1 °F 7.7 °F 79% 30.74 in 10.0 mi NW 3.5 mph - N/A   Clear
4:35 AM 13.1 °F - 7.7 °F 79% 30.74 in 10.0 mi Calm Calm - N/A   Clear
4:55 AM 13.1 °F 7.1 °F 7.5 °F 78% 30.74 in 10.0 mi NNW 3.5 mph - N/A   Clear
5:15 AM 12.9 °F - 7.5 °F 79% 30.75 in 10.0 mi Calm Calm - N/A   Clear
5:35 AM 12.7 °F 6.7 °F 7.5 °F 80% 30.75 in 10.0 mi WNW 3.5 mph - N/A   Clear
5:55 AM 12.7 °F - 7.5 °F 80% 30.75 in 10.0 mi Calm Calm - N/A   Clear
6:15 AM 12.4 °F - 7.3 °F 80% 30.75 in 10.0 mi Calm Calm - N/A   Clear
6:35 AM 12.4 °F 6.3 °F 7.5 °F 81% 30.76 in 10.0 mi West 3.5 mph - N/A   Clear
6:55 AM 12.6 °F 6.5 °F 7.7 °F 81% 30.77 in 10.0 mi West 3.5 mph - N/A   Clear
7:15 AM 12.9 °F - 8.4 °F 82% 30.78 in 10.0 mi Calm Calm - N/A   Clear
7:35 AM 13.8 °F 8.0 °F 9.1 °F 82% 30.78 in 10.0 mi West 3.5 mph - N/A   Clear
7:55 AM 15.3 °F 6.6 °F 9.5 °F 78% 30.78 in 10.0 mi NW 5.8 mph - N/A   Clear
8:15 AM 16.5 °F 9.4 °F 10.6 °F 77% 30.80 in 10.0 mi NW 4.6 mph - N/A   Clear
8:35 AM 17.4 °F 12.1 °F 10.4 °F 74% 30.79 in 10.0 mi WNW 3.5 mph - N/A   Clear
8:55 AM 18.5 °F 13.3 °F 9.9 °F 69% 30.78 in 10.0 mi NNW 3.5 mph - N/A   Clear
9:15 AM 19.2 °F - 9.9 °F 67% 30.78 in 10.0 mi Calm Calm - N/A   Clear
9:35 AM 19.9 °F 13.4 °F 9.5 °F 64% 30.78 in 10.0 mi NW 4.6 mph - N/A   Clear
9:55 AM 21.2 °F - 9.3 °F 60% 30.77 in 10.0 mi Calm Calm - N/A   Clear
10:15 AM 22.3 °F 17.6 °F 9.3 °F 58% 30.76 in 10.0 mi North 3.5 mph - N/A   Clear
10:35 AM 22.6 °F 15.3 °F 9.7 °F 58% 30.75 in 10.0 mi North 5.8 mph - N/A   Clear
10:55 AM 23.0 °F 17.0 °F 9.1 °F 55% 30.73 in 10.0 mi West 4.6 mph - N/A   Clear
11:15 AM 24.1 °F - 8.1 °F 51% 30.72 in 10.0 mi Calm Calm - N/A   Clear
11:35 AM 25.0 °F - 7.9 °F 48% 30.70 in 10.0 mi Calm Calm - N/A   Clear
11:55 AM 26.1 °F - 8.6 °F 48% 30.68 in 10.0 mi Calm Calm - N/A   Clear
12:15 PM 26.4 °F - 7.5 °F 45% 30.67 in 10.0 mi Calm Calm - N/A   Clear
12:35 PM 27.1 °F - 4.5 °F 38% 30.65 in 10.0 mi Calm Calm - N/A   Clear
12:55 PM 27.9 °F - 5.5 °F 39% 30.64 in 10.0 mi Calm Calm - N/A   Clear
1:15 PM 27.9 °F - 5.2 °F 38% 30.63 in 10.0 mi Calm Calm - N/A   Clear
1:35 PM 29.3 °F 25.6 °F 5.0 °F 36% 30.62 in 10.0 mi South 3.5 mph - N/A   Clear
1:55 PM 29.1 °F - 3.6 °F 34% 30.62 in 10.0 mi Calm Calm - N/A   Clear
2:15 PM 28.4 °F 23.3 °F 4.3 °F 36% 30.61 in 10.0 mi South 4.6 mph - N/A   Clear
2:35 PM 28.4 °F 23.3 °F 3.9 °F 35% 30.60 in 10.0 mi South 4.6 mph - N/A   Clear
2:55 PM 28.6 °F 23.5 °F 5.2 °F 37% 30.59 in 10.0 mi South 4.6 mph - N/A   Clear
3:15 PM 28.8 °F 22.6 °F 5.9 °F 38% 30.59 in 10.0 mi South 5.8 mph - N/A   Clear
3:35 PM 28.8 °F 23.7 °F 6.6 °F 39% 30.58 in 10.0 mi South 4.6 mph - N/A   Clear
3:55 PM 28.2 °F 20.2 °F 6.6 °F 40% 30.58 in 10.0 mi South 8.1 mph - N/A   Clear
4:15 PM 27.5 °F 21.1 °F 9.3 °F 46% 30.57 in 10.0 mi South 5.8 mph - N/A   Clear
4:35 PM 26.6 °F 21.2 °F 10.2 °F 50% 30.57 in 10.0 mi South 4.6 mph - N/A   Clear
4:55 PM 25.9 °F 21.7 °F 10.9 °F 53% 30.57 in 10.0 mi South 3.5 mph - N/A   Clear
5:15 PM 24.8 °F - 12.7 °F 60% 30.57 in 10.0 mi Calm Calm - N/A   Clear
5:35 PM 24.4 °F 18.6 °F 12.9 °F 62% 30.57 in 10.0 mi South 4.6 mph - N/A   Clear
5:55 PM 24.4 °F 18.6 °F 13.1 °F 62% 30.56 in 10.0 mi South 4.6 mph - N/A   Clear
6:15 PM 22.6 °F 18.0 °F 14.0 °F 69% 30.55 in 10.0 mi South 3.5 mph - N/A   Clear
6:35 PM 22.8 °F 15.5 °F 13.6 °F 68% 30.55 in 10.0 mi South 5.8 mph - N/A   Clear
6:55 PM 22.8 °F 18.2 °F 13.1 °F 66% 30.54 in 10.0 mi South 3.5 mph - N/A   Clear
7:15 PM 21.2 °F 14.9 °F 13.8 °F 73% 30.53 in 10.0 mi South 4.6 mph - N/A   Clear
7:35 PM 20.8 °F 16.0 °F 13.6 °F 74% 30.53 in 10.0 mi SSE 3.5 mph - N/A   Clear
7:55 PM 21.4 °F 13.8 °F 14.0 °F 73% 30.53 in 10.0 mi South 5.8 mph - N/A   Clear
8:15 PM 21.7 °F 15.5 °F 14.0 °F 72% 30.52 in 10.0 mi South 4.6 mph - N/A   Clear
8:35 PM 21.7 °F 14.3 °F 14.9 °F 75% 30.51 in 10.0 mi South 5.8 mph - N/A   Clear
8:55 PM 21.9 °F 14.5 °F 14.9 °F 74% 30.51 in 10.0 mi South 5.8 mph - N/A   Clear
9:15 PM 21.7 °F 14.3 °F 14.9 °F 75% 30.50 in 10.0 mi South 5.8 mph - N/A   Clear
9:35 PM 22.1 °F 14.7 °F 14.4 °F 72% 30.50 in 10.0 mi South 5.8 mph - N/A   Clear
9:55 PM 22.8 °F 13.6 °F 14.2 °F 69% 30.49 in 10.0 mi South 8.1 mph - N/A   Clear
10:15 PM 23.0 °F 13.1 °F 14.7 °F 71% 30.49 in 10.0 mi South 9.2 mph - N/A   Clear
10:35 PM 23.5 °F 15.4 °F 15.3 °F 71% 30.47 in 10.0 mi South 6.9 mph - N/A   Clear
10:55 PM 23.7 °F 14.0 °F 14.9 °F 69% 30.47 in 10.0 mi South 9.2 mph - N/A   Clear
11:15 PM 23.9 °F 14.2 °F 15.8 °F 71% 30.46 in 10.0 mi South 9.2 mph - N/A   Clear
11:35 PM 24.8 °F 14.0 °F 15.3 °F 67% 30.45 in 10.0 mi South 11.5 mph - N/A   Clear
11:55 PM 25.2 °F 13.3 °F 15.1 °F 66% 30.44 in 10.0 mi South 13.8 mph - N/A   Clear